[[{"header":{"parameterUnit":"m.s-1","parameterCategory":1,"la1":30.2991,"la2":30.254,"lo1":-89.0895,"lo2":-89.0444,"dy":0.0017,"dx":0.0017,"nx":28,"ny":28,"refTime":"2025-09-12T09:00:00:Z","depth":0,"parameterNumber":2,"parameterNumberName":"U-component_of_WINDS"},"data":[0,0,0,0,0,0,0,0,0,0,0,0,0,0,0,0,0,0,0,0,0,0,0,0,0,0,0,0,0,0,0,0,0,0,0,0,0,0,0,0,0,0,0,0,0,0,0,0,0,0,0,0,0,0,0,0,0,0,-1.191,-1.1911,0,-1.1988,-1.1988,-1.1989,-1.1963,-1.1961,-1.196,-1.1958,-1.2038,-1.2042,-1.2045,0,0,0,0,0,0,0,0,0,0,0,0,0,-1.1739,-1.1742,-1.191,-1.1911,-1.1912,-1.1987,-1.1988,-1.1989,-1.1963,-1.1961,-1.1959,-1.1957,-1.2037,-1.2041,-1.2046,0,0,0,0,0,0,0,0,0,0,0,0,0,-1.1815,-1.1744,-1.191,-1.1908,-1.1908,-1.1987,-1.1988,-1.199,-1.1964,-1.1961,-1.1959,-1.1956,-1.2035,-1.2041,-1.2046,-1.2132,0,0,-1.2063,-1.2066,0,0,0,0,0,0,0,0,-1.181,-1.1821,-1.1907,-1.1908,-1.1909,-1.1963,-1.1958,-1.2037,-1.1964,-1.1943,-1.1958,-1.1955,-1.2015,-1.2022,-1.2042,-1.2135,-1.2139,-1.2064,-1.2067,-1.207,-1.2071,0,0,0,0,0,0,0,-1.1805,-1.1818,-1.1941,-1.1908,-1.191,-1.1903,-1.1911,-1.1973,-1.1992,-1.1944,-1.1943,-1.1952,-1.2015,-1.2037,-1.2044,-1.214,-1.2064,-1.2069,-1.2072,-1.2074,-1.2307,-1.2309,0,0,0,0,0,0,-1.18,-1.1813,-1.1938,-1.1943,-1.1852,-1.1908,-1.1917,-1.1948,-1.1992,-1.1996,-1.1954,-1.1951,-1.2029,-1.2038,-1.2047,-1.215,-1.207,-1.2075,-1.2078,-1.2304,-1.2307,-1.231,0,0,0,0,0,0,-1.1796,-1.1811,-1.1935,-1.1878,-1.1893,-1.1914,-1.1949,-1.1951,-1.1973,-1.1999,-1.2002,-1.1973,-1.2027,-1.2039,-1.2111,-1.2152,-1.2077,-1.2082,-1.23,-1.2305,-1.2309,-1.2356,0,0,0,0,0,0,-1.1791,-1.181,-1.1842,-1.1879,-1.1896,-1.1998,-1.1952,-1.1954,-1.1983,-1.1979,-1.2018,-1.2022,-1.2026,-1.2102,-1.2116,-1.2158,-1.2087,-1.2297,-1.2302,-1.2307,-1.2351,-1.2361,-1.237,0,0,0,0,0,-1.1785,-1.1853,-1.1844,-1.1859,-1.1938,-1.2,-1.201,-1.2014,-1.1986,-1.2019,-1.2036,-1.202,-1.2145,-1.211,-1.2125,-1.217,-1.2294,-1.2301,-1.2307,-1.2347,-1.2359,-1.237,0,0,0,0,0,0,-1.1821,-1.1858,-1.1848,-1.193,-1.1962,-1.1996,-1.2038,-1.2027,-1.2068,-1.2063,-1.2066,-1.2075,-1.2148,-1.2166,-1.2126,-1.2254,-1.2216,-1.2225,-1.224,-1.2253,-1.2262,-1.2257,-1.2091,0,0,0,0,0,-1.1839,-1.1887,-1.1916,-1.1985,-1.2001,-1.2017,-1.2044,-1.2044,-1.2078,-1.2091,-1.2113,-1.2146,-1.2193,-1.2224,-1.2268,-1.2353,-1.2361,-1.2391,-1.2401,-1.2408,-1.2417,-1.2463,-1.2477,-1.2331,-1.2331,-1.2331,0,0,-1.1875,-1.1901,-1.1931,-1.1993,-1.2018,-1.2067,-1.2028,-1.2082,-1.2119,-1.2099,-1.2168,-1.2186,-1.2223,-1.2302,-1.2337,-1.2319,-1.2459,-1.2417,-1.2423,-1.2427,-1.2471,-1.2485,-1.2497,-1.2336,-1.2335,-1.2334,0,0,-1.1967,-1.1992,-1.2052,-1.2077,-1.2116,-1.2125,-1.214,-1.2175,-1.2185,-1.2254,-1.2241,-1.2284,-1.2365,-1.2392,-1.2416,-1.2518,-1.2505,-1.2532,-1.2583,-1.2628,-1.2639,-1.265,-1.2686,-1.2699,-1.254,-1.254,-1.254,0,-1.2008,-1.2082,-1.2084,-1.2139,-1.2167,-1.2151,-1.2212,-1.2236,-1.2287,-1.2306,-1.2285,-1.2385,-1.2409,-1.2493,-1.2518,-1.2538,-1.2555,-1.2528,-1.2638,-1.2648,-1.2657,-1.2692,-1.2706,-1.2543,-1.2543,-1.2543,-1.2542,0,-1.2131,-1.2182,-1.2226,-1.2275,-1.2308,-1.2365,-1.2376,-1.2408,-1.2405,-1.2417,-1.2488,-1.2516,-1.2565,-1.2585,-1.2583,-1.267,-1.2657,-1.2636,-1.2597,-1.2674,-1.2707,-1.272,-1.2548,-1.2547,-1.2546,-1.2545,0,0,-1.2249,-1.2297,-1.2314,-1.2336,-1.2376,-1.2416,-1.2473,-1.2521,-1.2549,-1.2584,-1.2632,-1.27,-1.2681,-1.2709,-1.2709,-1.2749,-1.2827,-1.2723,-1.2724,-1.2742,-1.2925,-1.2941,-1.2956,-1.2819,-1.2821,-1.2824,-1.2922,0,-1.2344,-1.2444,-1.2447,-1.2539,-1.2586,-1.2571,-1.2621,-1.2651,-1.2664,-1.2706,-1.2719,-1.2768,-1.2739,-1.2755,-1.2794,-1.281,-1.2864,-1.2803,-1.2864,-1.2866,-1.2856,-1.2973,-1.299,-1.3082,-1.2935,-1.2937,-1.2938,0,-1.247,-1.2509,-1.2605,-1.2638,-1.2658,-1.2703,-1.2747,-1.2788,-1.2821,-1.2828,-1.2858,-1.2853,-1.2911,-1.2869,-1.2949,-1.2907,-1.2932,-1.2944,-1.2947,-1.2954,-1.2907,-1.2983,-1.3111,-1.3125,-1.2959,-1.2957,-1.2956,0,-1.2546,-1.2623,-1.2691,-1.271,-1.275,-1.2782,-1.28,-1.2832,-1.286,-1.2899,-1.2918,-1.2963,-1.2987,-1.3022,-1.3029,-1.2998,-1.3109,-1.3068,-1.3116,-1.3116,-1.3141,-1.3139,-1.3275,-1.3156,-1.3156,-1.3156,-1.3155,0,-1.2653,-1.2713,-1.2726,-1.2767,-1.2833,-1.2836,-1.2901,-1.2917,-1.2945,-1.2989,-1.2979,-1.3021,-1.3027,-1.307,-1.3075,-1.3141,-1.3152,-1.3159,-1.316,-1.316,-1.3159,-1.3177,-1.3171,-1.3159,-1.3158,-1.3158,-1.3157,0,-1.2751,-1.2762,-1.2834,-1.2866,-1.2876,-1.2923,-1.2951,-1.2991,-1.3001,-1.3058,-1.3071,-1.3088,-1.3139,-1.3148,-1.3208,-1.3212,-1.329,-1.3284,-1.3278,-1.3278,-1.3325,-1.3321,-1.3478,-1.3498,-1.3366,-1.3367,-1.3368,0,-1.2819,-1.2864,-1.2901,-1.293,-1.295,-1.2997,-1.3026,-1.303,-1.3061,-1.3102,-1.3137,-1.3186,-1.3225,-1.3307,-1.3324,-1.337,-1.3365,-1.3417,-1.3372,-1.3371,-1.3366,-1.3364,-1.3368,-1.3426,-1.3427,-1.3428,-1.3429,0,-1.2938,-1.2941,-1.2983,-1.3028,-1.3063,-1.3098,-1.3131,-1.3156,-1.3164,-1.3199,-1.325,-1.3281,-1.3341,-1.339,-1.3435,-1.3454,-1.3444,-1.3443,-1.3457,-1.3458,-1.3453,-1.3457,-1.3302,-1.344,-1.3439,-1.3438,-1.3437,-1.3437,-1.3023,-1.3063,-1.3095,-1.3143,-1.3168,-1.3199,-1.3238,-1.3254,-1.3296,-1.3346,-1.3345,-1.3402,-1.3434,-1.3493,-1.3515,-1.3558,-1.3542,-1.3562,-1.3567,-1.3572,-1.3576,-1.3446,-1.3567,-1.3566,-1.3566,-1.3566,-1.3566,0,-1.3142,-1.3162,-1.3206,-1.3252,-1.329,-1.3276,-1.3312,-1.3344,-1.3394,-1.3424,-1.3463,-1.3522,-1.3569,-1.359,-1.3637,-1.3668,-1.3664,-1.368,-1.3678,-1.3682,-1.3588,-1.3572,-1.3682,-1.3682,-1.3682,-1.3682,-1.3682,-1.3682,-1.3209,-1.3275,-1.3282,-1.336,-1.338,-1.3434,-1.3456,-1.3485,-1.3509,-1.3575,-1.3614,-1.3628,-1.3655,-1.3703,-1.3746,-1.3751,-1.3768,-1.3787,-1.3789,-1.3701,-1.3689,-1.3678,-1.3663,-1.379,-1.3791,-1.388,-1.3881,-1.3882]},{"header":{"parameterUnit":"m.s-1","parameterCategory":1,"la1":30.2991,"la2":30.254,"lo1":-89.0895,"lo2":-89.0444,"dy":0.0017,"dx":0.0017,"nx":28,"ny":28,"refTime":"2025-09-12T09:00:00:Z","depth":0,"parameterNumber":3,"parameterNumberName":"V-component_of_WINDS"},"data":[0,0,0,0,0,0,0,0,0,0,0,0,0,0,0,0,0,0,0,0,0,0,0,0,0,0,0,0,0,0,0,0,0,0,0,0,0,0,0,0,0,0,0,0,0,0,0,0,0,0,0,0,0,0,0,0,0,0,-3.2197,-3.2198,0,-3.2251,-3.2251,-3.2252,-3.2219,-3.2217,-3.2216,-3.2214,-3.2265,-3.2267,-3.227,0,0,0,0,0,0,0,0,0,0,0,0,0,-3.2061,-3.2064,-3.2197,-3.2198,-3.2198,-3.2251,-3.2251,-3.2252,-3.2219,-3.2217,-3.2215,-3.2214,-3.2264,-3.2267,-3.227,0,0,0,0,0,0,0,0,0,0,0,0,0,-3.2118,-3.2065,-3.2197,-3.2188,-3.2188,-3.2251,-3.2251,-3.2252,-3.2219,-3.2217,-3.2215,-3.2213,-3.2263,-3.2267,-3.2271,-3.2344,0,0,-3.2284,-3.2286,0,0,0,0,0,0,0,0,-3.2115,-3.2123,-3.2189,-3.2189,-3.2189,-3.2226,-3.2222,-3.2283,-3.222,-3.2207,-3.2214,-3.2211,-3.2253,-3.2258,-3.2273,-3.2346,-3.2348,-3.2284,-3.2287,-3.2288,-3.229,0,0,0,0,0,0,0,-3.2111,-3.212,-3.2218,-3.219,-3.219,-3.218,-3.2186,-3.2233,-3.2243,-3.2208,-3.2206,-3.2213,-3.2253,-3.2269,-3.2274,-3.2349,-3.2284,-3.2288,-3.229,-3.2292,-3.2482,-3.2485,0,0,0,0,0,0,-3.2108,-3.2117,-3.2216,-3.222,-3.2145,-3.2185,-3.2191,-3.2216,-3.2242,-3.2244,-3.2215,-3.2211,-3.2263,-3.2269,-3.2276,-3.2362,-3.2288,-3.2292,-3.2295,-3.248,-3.2483,-3.2486,0,0,0,0,0,0,-3.2105,-3.2117,-3.2214,-3.2168,-3.218,-3.2189,-3.2218,-3.2219,-3.2235,-3.2247,-3.2248,-3.223,-3.2262,-3.227,-3.2327,-3.2363,-3.2294,-3.2298,-3.2477,-3.2481,-3.2484,-3.2535,0,0,0,0,0,0,-3.2102,-3.2117,-3.2145,-3.2169,-3.2182,-3.2266,-3.2221,-3.2221,-3.2243,-3.2239,-3.2262,-3.2264,-3.226,-3.2321,-3.2331,-3.2368,-3.2301,-3.2474,-3.2479,-3.2483,-3.253,-3.254,-3.2548,0,0,0,0,0,-3.2097,-3.2157,-3.2147,-3.2159,-3.2219,-3.2268,-3.2276,-3.2272,-3.2246,-3.2274,-3.2282,-3.2263,-3.2358,-3.2327,-3.2338,-3.2377,-3.2471,-3.2477,-3.2483,-3.2526,-3.2538,-3.2548,0,0,0,0,0,0,-3.2136,-3.216,-3.2149,-3.2219,-3.2242,-3.2263,-3.2298,-3.2285,-3.2315,-3.231,-3.2303,-3.2308,-3.2368,-3.2378,-3.2343,-3.2448,-3.241,-3.2418,-3.2439,-3.2451,-3.246,-3.2456,-3.2305,0,0,0,0,0,-3.2153,-3.2192,-3.2211,-3.227,-3.2282,-3.2289,-3.231,-3.2305,-3.2328,-3.2338,-3.235,-3.2371,-3.2406,-3.2429,-3.2461,-3.2531,-3.2535,-3.2563,-3.2572,-3.258,-3.2587,-3.2623,-3.2636,-3.2505,-3.2504,-3.2504,0,0,-3.2187,-3.2205,-3.2231,-3.2278,-3.2296,-3.2336,-3.2297,-3.2341,-3.237,-3.2344,-3.2399,-3.2408,-3.2432,-3.2496,-3.2524,-3.2506,-3.2624,-3.2587,-3.2593,-3.2596,-3.263,-3.2643,-3.2654,-3.2508,-3.2508,-3.2507,0,0,-3.2271,-3.2289,-3.2341,-3.2359,-3.2386,-3.239,-3.2402,-3.2425,-3.2431,-3.2486,-3.2468,-3.2501,-3.2561,-3.2579,-3.2595,-3.2686,-3.2669,-3.2696,-3.2744,-3.278,-3.279,-3.2799,-3.283,-3.2842,-3.2703,-3.2703,-3.2704,0,-3.231,-3.2371,-3.2368,-3.2414,-3.2434,-3.2414,-3.2465,-3.2483,-3.2519,-3.2533,-3.2512,-3.2587,-3.2601,-3.2668,-3.2691,-3.2705,-3.2718,-3.2693,-3.2789,-3.2798,-3.2807,-3.2836,-3.2848,-3.2707,-3.2706,-3.2706,-3.2706,0,-3.2417,-3.246,-3.2498,-3.2535,-3.256,-3.2608,-3.261,-3.2636,-3.2629,-3.2634,-3.269,-3.2707,-3.2743,-3.2758,-3.2751,-3.2824,-3.2812,-3.279,-3.2752,-3.2822,-3.285,-3.2861,-3.2711,-3.271,-3.2709,-3.2708,0,0,-3.2527,-3.2562,-3.2575,-3.2592,-3.262,-3.2652,-3.2699,-3.2735,-3.2756,-3.2781,-3.2819,-3.287,-3.2851,-3.287,-3.2865,-3.2896,-3.2966,-3.2871,-3.2871,-3.2887,-3.3045,-3.3061,-3.3074,-3.2955,-3.2957,-3.2959,-3.3043,0,-3.2611,-3.2694,-3.2693,-3.2769,-3.2807,-3.2788,-3.2828,-3.285,-3.2856,-3.2888,-3.2894,-3.293,-3.2902,-3.2913,-3.2944,-3.2951,-3.2997,-3.2945,-3.2988,-3.299,-3.2982,-3.3089,-3.3105,-3.3184,-3.3054,-3.3056,-3.3057,0,-3.2721,-3.2752,-3.2832,-3.2855,-3.2871,-3.2907,-3.294,-3.2971,-3.2994,-3.2996,-3.3018,-3.3008,-3.3053,-3.3015,-3.3076,-3.304,-3.3058,-3.3064,-3.3067,-3.307,-3.3027,-3.3094,-3.3209,-3.322,-3.3074,-3.3073,-3.3072,0,-3.2792,-3.2853,-3.2909,-3.2923,-3.2951,-3.2977,-3.299,-3.3011,-3.3032,-3.306,-3.3073,-3.3106,-3.3123,-3.3148,-3.3146,-3.3118,-3.3208,-3.317,-3.321,-3.321,-3.3229,-3.3227,-3.3348,-3.3242,-3.3241,-3.3241,-3.3241,0,-3.2886,-3.2936,-3.2941,-3.2975,-3.303,-3.3027,-3.308,-3.309,-3.3109,-3.3143,-3.3128,-3.3161,-3.3157,-3.3189,-3.3188,-3.3238,-3.3246,-3.3248,-3.3247,-3.3249,-3.3249,-3.326,-3.3254,-3.3244,-3.3244,-3.3243,-3.3243,0,-3.2974,-3.2979,-3.3039,-3.3061,-3.3068,-3.3107,-3.3125,-3.3156,-3.3161,-3.3205,-3.3215,-3.3222,-3.326,-3.3261,-3.3303,-3.3302,-3.3363,-3.3356,-3.3356,-3.3354,-3.3394,-3.339,-3.3525,-3.3542,-3.3426,-3.3427,-3.3428,0,-3.3033,-3.3071,-3.3098,-3.3121,-3.3135,-3.3172,-3.3194,-3.3193,-3.3216,-3.3245,-3.3273,-3.3309,-3.3337,-3.3397,-3.3405,-3.3437,-3.343,-3.3475,-3.3434,-3.3435,-3.3429,-3.3427,-3.343,-3.3483,-3.3484,-3.3485,-3.3486,0,-3.3138,-3.3139,-3.3173,-3.3207,-3.3234,-3.3261,-3.3286,-3.3305,-3.3306,-3.3332,-3.3371,-3.3393,-3.3437,-3.3472,-3.3503,-3.3514,-3.35,-3.3499,-3.3509,-3.3512,-3.351,-3.351,-3.3377,-3.3495,-3.3494,-3.3494,-3.3493,-3.3493,-3.3213,-3.3246,-3.3269,-3.3307,-3.3326,-3.3349,-3.338,-3.3389,-3.3422,-3.3458,-3.3454,-3.3497,-3.3517,-3.3558,-3.3572,-3.3604,-3.3588,-3.3604,-3.3607,-3.3611,-3.3615,-3.3505,-3.3609,-3.3609,-3.3609,-3.3608,-3.3608,0,-3.3316,-3.3331,-3.3365,-3.3401,-3.343,-3.3416,-3.3442,-3.3467,-3.3505,-3.3527,-3.3556,-3.3599,-3.3633,-3.3644,-3.3677,-3.37,-3.3695,-3.3709,-3.3707,-3.3709,-3.3628,-3.3615,-3.3713,-3.3713,-3.3713,-3.3713,-3.3713,-3.3713,-3.3373,-3.3428,-3.3431,-3.3494,-3.3508,-3.355,-3.3567,-3.3587,-3.3604,-3.3654,-3.3683,-3.3691,-3.3708,-3.3741,-3.3771,-3.3774,-3.3786,-3.3803,-3.3802,-3.3726,-3.3715,-3.3705,-3.3693,-3.3806,-3.3806,-3.3881,-3.3881,-3.3882]}]]